This is the latest recevied weather packets stored in our database for station/object EA1GHG-11. If no packets are shown the sender has not sent any weather packets the latest 10 day(s).
| Time | Temp. | Humidity | Pressure | Rain* | Wind** | Luminosity | Snow |
|---|---|---|---|---|---|---|---|
| 1777273895 | 14.44° C | 100% | 1021.7 hPa | - | - | - | - |
| 1777272394 | 11.67° C | 100% | 1021.8 hPa | - | - | - | - |
| 1777270894 | 11.67° C | 100% | 1021.5 hPa | - | - | - | - |
| 1777270295 | 11.11° C | 100% | 1021.5 hPa | - | - | - | - |
| 1777268795 | 11.11° C | 100% | 1021.4 hPa | - | - | - | - |
| 1777267295 | 11.67° C | 100% | 1021.2 hPa | - | - | - | - |
| 1777265795 | 10.56° C | 100% | 1021.2 hPa | - | - | - | - |
| 1777264295 | 12.22° C | 100% | 1021.2 hPa | - | - | - | - |
| 1777262795 | 12.22° C | 100% | 1021.2 hPa | - | - | - | - |
| 1777261295 | 11.67° C | 100% | 1021.4 hPa | - | - | - | - |
| 1777259795 | 12.78° C | 100% | 1021.3 hPa | - | - | - | - |
| 1777258295 | 13.33° C | 100% | 1021.3 hPa | - | - | - | - |
| 1777256795 | 12.78° C | 100% | 1021.3 hPa | - | - | - | - |
| 1777255294 | 13.33° C | 100% | 1021.4 hPa | - | - | - | - |
| 1777253794 | 13.33° C | 100% | 1021.6 hPa | - | - | - | - |
| 1777252294 | 13.89° C | 100% | 1021.7 hPa | - | - | - | - |
| 1777250794 | 14.44° C | 100% | 1021.9 hPa | - | - | - | - |
| 1777249293 | 14.44° C | 100% | 1022 hPa | - | - | - | - |
| 1777248694 | 15° C | 100% | 1021.9 hPa | - | - | - | - |
| 1777247194 | 14.44° C | 100% | 1022 hPa | - | - | - | - |
| 1777245694 | 15° C | 100% | 1022 hPa | - | - | - | - |
| 1777244194 | 15.56° C | 100% | 1022 hPa | - | - | - | - |
| 1777242694 | 15.56° C | 100% | 1022 hPa | - | - | - | - |
| 1777241194 | 15° C | 100% | 1022 hPa | - | - | - | - |
| 1777239694 | 15.56° C | 100% | 1022 hPa | - | - | - | - |
* Rain since midnight (hover to see other rain measurements)
** Current wind speed in m/s (hover to see current wind gust speed)